Weather Roundup
Issued by NWS Chicago, IL

Home | Current Version | Previous Version | Text Only | Print | Product List | Glossary Off
Versions: 1 2 3 4 5 6 7 8 9 10 11 12 13 14 15 16 17 18 19 20 21 22 23 24 25 26 27 28 29 30 31 32 33 34 35 36 37 38 39 40 41 42 43 44 45 46 47 48 49 50

000
NZUS59 KLOT 280713
HRRLOT

CHICAGO AREA WEATHER ROUNDUP
NATIONAL WEATHER SERVICE CHICAGO/ROMEOVILLE IL
200 AM CDT WED SEP 28 2016

NOTE: "FAIR" INDICATES FEW OR NO CLOUDS BELOW 12,000 FEET WITH NO
SIGNIFICANT WEATHER AND/OR OBSTRUCTIONS TO VISIBILITY.

* THESE STATIONS ARE NOT UNDER NWS QUALITY CONTROL. THEY ALSO MAY NOT
  REPORT WEATHER SUCH AS PRECIPITATION OR FOG.

ILZ005-006-012>014-019>023-280800-
NORTHEAST ILLINOIS

CITY           SKY/WX    TMP DP  RH WIND       PRES   REMARKS
OHARE          CLOUDY    54  45  71 NE9       29.77F
MIDWAY         CLOUDY    56  44  64 NE12      29.78F
AURORA         CLOUDY    53  46  77 N7        29.79R
LANSING*       CLOUDY    57  53  85 NE5       29.76S
JOLIET*        CLOUDY    56  48  74 N7        29.78R
WAUKEGAN       LGT RAIN  51  46  83 SW3       29.78S
DUPAGE AIRPORT CLOUDY    53  45  74 NW6       29.79R
WHEELING       CLOUDY    53  46  77 CALM      29.79F
KANKAKEE*      PTCLDY    53  45  75 NW6       29.76S
MORRIS*        CLOUDY    55  47  74 CALM      29.76R
LEWIS AIRPORT* CLOUDY    54  49  83 NE7       29.78R
NORTHERLY ISL    N/A     55  44  66 N13         N/A
$$

WIZ051-052-058>065-066-070>072-280800-
SOUTHEAST WISCONSIN

CITY           SKY/WX    TMP DP  RH WIND       PRES   REMARKS
MILWAUKEE      LGT RAIN  51  48  89 NW5       29.79S
KENOSHA*       CLOUDY    51  46  83 CALM      29.79S
RACINE*        CLOUDY    50  46  86 CALM      29.80S
BURLINGTON     DRIZZLE   47  46  93 CALM      29.79R
WAUKESHA       DRIZZLE   46  45  93 CALM      29.80R
WEST BEND      CLOUDY    48  46  93 W3        29.78S
$$

INZ001>003-010>013-019-020-280800-
NORTHWEST INDIANA

CITY           SKY/WX    TMP DP  RH WIND       PRES   REMARKS
GARY*          MOCLDY    57  47  67 E6        29.78R
MICHIGAN CITY* NOT AVBL
RENSSELAER*    NOT AVBL
VALPARAISO     CLOUDY    50  44  80 NE6       29.77S
$$

LMZ740>746-280800-
SOUTHERN LAKE MICHIGAN

STATION/POSITION TIME  SKY/WX   TEMP WIND        PRES    VSBY
                                AIR  DIR/SP/G
                 (UTC)          (F)  (DEG/KT/KT) (MB)    (MI)
HARRISON CRIB    0640            56  350/ 14/ 16   N/A
BURNHAM HARBOR   0700            55   10/ 10/ 14   N/A
CALUMET HARBOR   0648            56  340/ 12/ 15 1008.0R
BURNS HARBOR     0640            56   90/  7/ 10 1008.5S
MICHIGAN CITY    0640            55   60/  8/  9   N/A
$$

ABBREVIATIONS USED IN REMARKS
   TC - TEMPERATURE IN CELSIUS
  WCI - WIND CHILL INDEX
   HX - HEAT INDEX
  VSB - VISIBILITY
$$




USA.gov is the U.S. government's official web portal to all federal, state and local government web resources and services.